Location: Borbetomagus
(49.6328°N, 8.3592°E)
Time: 00:42:32
(UTC+00:00)

Cosmos 2150 Rocket - Pass Details

Date: 19 May 2025
Orbit: 745 x 804 km, 74.0° (Epoch: 22 June)

Event Time Altitude Azimuth Distance (km) Brightness Sun altitude
Rises 21:33:21 0° 333° (NNW) 3,294 9.1 -16.3°
Reaches altitude 10° 21:35:46 10° 330° (NNW) 2,369 7.9 -16.4°
Maximum altitude 21:41:04 58° 252° (WSW) 932 4.4 -16.8°
Enters shadow 21:44:08 25° 183° (S) 1,575 5.1 -17.0°
